SCP
0 0 0 1 1 1 1 1 1 1 1 0 0 0 0 0 0 0 0 0 0 1 1 1 0 0 0 1 1 1 1 1 1 1 1 1 1 1 1 1 2 4 5
0 0 0 1 1 1 1 1 1 1 1 0 0 0 0 0 0 0 0 0 0 0 0 1 0 0 0 1 1 1 1 1 1 1 1 1 1 1 1 1 2 4 4
0 0 0 0 0 0 0 0 0 0 0 0 0 0 0 0 0 0 0 0 0 0 0 1 1 1 1 1 1 1 1 1 1 1 1 1 1 1 1 1 2 3 3
0 0 0 0 0 0 0 0 0 0 0 0 0 0 0 0 0 0 0 0 0 0 0 0 1 1 1 1 1 1 1 1 1 1 1 1 1 1 1 1 2 2 2
0 0 0 0 0 0 0 0 0 0 0 0 0 0 0 0 0 0 0 0 0 0 0 0 0 0 0 1 1 1 1 1 1 1 1 1 1 1 1 1 1 1 1
0 0 0 0 0 0 0 0 0 0 0 0 0 0 0 0 0 0 0 0 0 0 0 0 0 0 0 0 1 1 1 1 1 1 1 1 1 1 1 1 1 1 1
0 0 0 0 0 0 0 0 0 0 0 0 0 0 0 0 0 0 0 0 0 0 0 0 0 0 0 0 0 0 1 1 1 1 1 1 1 1 1 0 1 1 0
0 0 0 0 0 0 0 0 0 0 0 0 0 0 0 0 0 0 0 0 0 0 0 0 0 0 0 0 0 0 0 1 1 1 1 1 1 1 1 0 1 1 1
0 0 0 0 0 0 0 0 0 0 0 0 0 0 0 0 0 0 1 1 1 1 0 0 0 0 0 0 0 0 0 1 1 1 1 1 1 1 1 1 1 1 1
0 0 0 0 0 0 0 0 0 0 0 0 1 1 0 0 0 1 1 1 1 1 1 0 0 0 0 0 0 0 0 1 1 1 1 1 1 1 1 1 0 0 0
0 0 0 0 0 0 0 0 0 1 1 1 1 1 1 1 0 0 1 1 1 1 1 0 0 0 0 0 0 0 0 0 0 0 1 1 1 0 0 0 0 0 0
1 1 0 0 0 0 0 0 0 1 1 1 1 1 1 1 0 0 0 1 1 1 0 0 0 0 0 0 0 0 0 0 0 0 0 0 0 0 0 0 0 0 0
1 1 0 0 0 0 0 0 0 0 0 1 1 1 1 0 0 0 0 1 1 1 0 0 0 0 0 1 0 0 0 0 0 0 0 0 0 0 0 0 0 0 0
1 1 0 0 0 0 0 0 0 0 0 0 0 0 0 0 0 0 0 1 1 1 0 0 0 0 0 0 0 0 0 0 0 0 0 0 0 0 0 0 0 0 0
1 0 0 0 0 0 0 0 0 0 0 0 0 0 0 0 0 0 0 0 0 0 0 0 0 0 0 0 0 0 0 0 0 0 0 0 0 0 0 0 0 0 0
0 0 0 0 0 0 0 0 0 0 0 0 0 0 0 0 0 0 0 0 0 0 0 0 0 0 0 0 0 0 0 0 0 0 0 0 0 0 0 0 0 0 0
0 0 0 0 0 0 0 0 0 1 1 1 1 1 0 0 0 0 0 0 0 0 0 0 0 0 0 0 0 0 0 0 0 0 0 0 0 0 0 0 0 0 0
0 0 0 0 0 0 0 0 1 0 1 1 1 1 1 1 1 0 0 0 0 0 0 0 0 0 0 0 0 0 0 0 0 0 0 0 0 0 0 0 0 0 0
0 0 0 0 0 0 0 0 0 0 0 0 0 0 0 1 1 1 0 0 0 0 0 0 0 0 0 0 0 0 0 0 0 0 0 0 0 0 0 0 0 0 0
0 0 0 0 0 0 0 0 0 0 0 0 0 0 0 0 0 0 0 0 0 0 0 0 0 0 0 0 0 0 0 0 0 0 0 0 0 0 0 0 0 0 0
0 0 0 0 0 0 0 0 0 0 0 0 0 0 0 0 0 0 0 0 0 1 1 1 0 0 0 0 0 0 0 0 0 0 0 0 0 0 0 0 0 0 0
1 0 0 0 0 0 0 0 0 0 0 0 0 0 0 0 0 0 0 0 0 0 1 1 0 0 0 0 0 0 0 0 0 0 0 0 0 0 1 1 0 0 0
1 1 1 1 1 0 0 0 0 0 0 0 0 0 0 0 0 0 0 0 0 0 0 0 0 0 0 0 0 0 0 0 0 0 0 0 0 1 1 0 0 0 0
1 1 1 1 1 0 0 0 0 0 0 0 0 0 0 0 0 0 0 0 0 0 0 0 0 0 0 0 0 0 0 0 0 0 0 0 0 0 1 0 0 0 0
2 2 1 1 1 1 0 0 0 0 0 0 0 0 0 0 0 0 0 0 0 0 0 0 0 0 0 0 0 0 0 0 0 0 0 0 0 0 1 0 0 0 0
2 2 1 1 1 1 0 0 0 0 0 0 0 0 0 0 0 0 0 0 0 0 0 0 0 0 0 0 0 0 0 0 0 0 0 0 0 0 0 0 0 0 0
Wind_Speed
3 4 4 4 4 4 4 4 5 6 6 7 7 7 8 8 7 6 6 13 13 12 11 11 11 10 10 10 10 9 9 8 8 8 9 8 8 8 7 7 7 8 8
3 3 4 4 4 4 4 4 5 5 5 6 7 7 7 7 7 7 6 8 12 13 12 12 11 10 10 9 9 9 9 9 9 9 9 9 8 8 8 9 9 9 9
3 3 3 4 3 4 4 4 5 5 5 5 6 6 6 6 6 7 6 5 7 11 12 12 11 10 9 9 9 9 9 9 9 9 9 9 8 8 9 9 9 9 9
3 3 3 3 3 3 3 3 4 4 5 5 5 5 5 5 7 6 6 6 5 6 9 12 12 11 10 8 8 9 9 9 9 10 9 9 9 9 9 10 10 10 9
3 3 3 3 3 3 3 3 3 4 5 5 5 4 5 5 5 6 6 7 6 6 6 8 10 11 11 10 9 9 9 9 9 10 9 9 8 9 9 10 10 10 10
3 2 2 3 3 2 2 3 4 3 4 4 4 5 4 4 4 5 5 5 6 7 6 6 5 7 10 10 10 10 9 9 9 9 9 9 8 8 9 9 9 9 9
2 2 1 2 2 2 2 3 3 4 3 3 3 3 4 5 5 4 4 4 5 6 6 6 5 4 4 8 9 9 8 8 8 8 9 9 9 9 9 9 9 9 9
1 2 2 2 2 2 3 3 2 2 2 1 0 1 2 3 3 4 3 3 4 4 5 5 5 5 4 4 7 9 8 8 8 9 10 10 9 10 9 9 9 9 9
1 1 2 2 2 2 2 3 3 2 1 1 1 2 1 1 2 3 4 3 4 4 4 4 5 5 5 4 4 7 8 8 9 10 10 10 10 10 10 9 8 8 8
2 2 2 2 2 2 2 3 3 2 1 1 1 1 2 2 1 1 2 3 3 3 4 3 4 4 4 4 5 8 8 8 8 9 10 10 10 9 8 8 8 8 8
2 2 2 2 3 2 2 2 2 2 2 1 1 1 0 0 2 1 1 1 2 2 3 3 2 3 3 3 3 6 7 7 7 8 8 8 9 8 8 7 7 7 7
2 3 3 2 3 2 3 3 3 3 2 2 2 1 1 1 1 1 1 1 1 2 2 2 2 2 2 2 4 7 6 6 6 7 7 7 7 7 7 6 6 6 7
3 3 3 3 2 2 2 2 3 2 3 2 2 2 2 1 1 1 1 1 1 1 1 1 1 1 2 2 4 5 6 6 6 6 6 6 6 6 5 5 6 6 6
2 3 4 3 3 3 3 2 2 2 2 2 2 2 2 1 1 2 1 1 1 1 1 1 1 2 1 2 4 1 5 6 5 5 5 5 5 5 5 5 5 5 5
2 3 4 3 3 3 3 3 2 2 2 2 2 2 2 1 2 2 2 2 2 1 1 1 1 1 1 2 2 1 3 6 4 4 4 4 4 4 4 4 4 5 5
3 4 4 4 4 4 4 3 3 2 2 2 2 2 2 2 1 2 2 2 2 2 0 1 1 2 1 2 2 1 3 5 4 4 4 4 4 3 3 4 4 4 4
4 5 5 4 4 4 5 4 4 4 3 3 3 3 3 2 2 2 2 2 2 1 1 2 2 2 3 2 2 1 2 2 4 4 3 3 3 3 3 4 4 4 4
4 5 5 5 5 5 5 4 4 4 4 4 3 3 3 2 3 2 2 3 2 2 2 3 3 3 3 2 2 2 1 1 2 5 3 2 2 3 3 3 3 3 3
4 5 5 5 5 5 5 5 5 5 4 4 4 4 4 4 4 3 3 3 2 2 2 3 3 2 2 2 2 2 2 1 2 4 4 3 2 2 2 2 2 2 2
4 5 5 5 5 5 5 5 5 5 5 4 4 4 4 4 4 4 4 3 3 3 3 3 3 3 3 3 3 2 2 2 2 2 2 2 3 3 3 2 2 2 1
4 4 5 5 5 5 4 5 5 5 5 4 4 4 3 1 2 1 2 3 4 3 3 3 3 3 3 3 3 3 2 2 2 2 2 3 3 3 3 4 4 3 2
4 4 4 5 5 4 3 3 4 5 5 4 4 4 4 4 4 3 3 3 3 4 4 4 4 4 4 4 3 3 3 3 3 3 3 2 2 2 2 2 3 3 3
3 4 4 4 5 4 5 5 5 5 5 4 4 4 3 3 4 5 6 6 5 5 5 5 5 4 4 4 5 5 4 4 3 1 3 3 3 3 2 2 4 4 4
3 4 4 4 3 3 5 6 6 6 5 4 4 4 4 5 4 4 4 5 5 5 5 6 5 4 3 3 5 4 4 4 3 2 3 3 3 3 2 3 6 5 5
4 4 4 4 4 4 5 6 6 5 4 5 5 4 4 4 4 4 5 5 5 4 3 3 3 2 1 1 2 3 4 4 4 3 4 3 3 3 3 3 4 7 6
4 4 4 4 5 5 5 7 8 5 5 5 4 4 4 4 5 7 7 6 6 5 4 4 4 4 5 5 6 6 4 4 4 3 3 3 3 3 3 3 3 4 5
Wind_Direction
81 84 84 75 73 76 82 81 77 75 70 66 65 62 61 59 56 56 61 55 49 53 62 70 73 75 75 77 77 75 72 72 71 76 77 73 74 73 76 80 100 103 95
84 85 82 77 74 73 70 77 80 76 72 67 63 59 58 60 59 60 59 64 58 52 54 61 66 69 75 79 80 78 76 76 74 77 78 75 74 74 76 75 87 93 93
94 95 87 86 85 88 87 81 82 78 79 80 72 61 55 53 56 57 56 54 64 63 54 52 56 62 68 75 80 81 81 81 81 80 77 78 78 76 78 80 82 86 88
98 93 93 87 86 83 84 87 87 85 82 75 69 63 62 57 54 53 58 57 50 54 63 53 49 52 58 68 77 81 81 84 85 81 77 79 81 81 80 81 81 83 83
107 108 98 97 96 93 92 92 86 86 87 80 74 66 59 57 55 52 56 54 54 51 57 63 57 50 53 59 69 77 80 82 85 82 77 78 81 84 84 83 83 83 81
113 107 119 119 111 107 102 99 94 90 90 91 84 74 67 68 60 52 51 54 50 50 50 49 58 63 55 52 60 70 75 80 84 85 81 78 78 84 87 87 86 85 83
136 130 137 136 139 126 121 119 112 112 111 113 115 104 93 73 66 62 48 50 58 52 53 52 47 48 66 64 55 62 68 74 76 85 82 78 77 80 84 87 86 86 82
161 158 171 160 157 143 150 138 134 140 130 159 217 168 146 131 84 60 57 49 51 54 51 54 55 50 53 65 63 58 62 73 78 84 85 81 79 79 84 87 86 86 82
178 192 177 171 170 177 163 171 174 180 166 173 337 331 328 64 108 100 64 56 50 47 47 47 52 48 55 66 70 63 59 70 80 83 85 83 79 79 80 81 86 87 82
185 193 183 192 186 190 179 192 193 216 218 197 161 323 341 23 284 131 115 73 54 46 42 42 46 47 51 64 68 61 63 67 78 82 82 81 81 80 80 79 78 80 83
179 180 193 204 202 199 199 204 208 236 245 263 247 215 96 115 280 285 118 111 97 62 46 36 37 42 46 62 73 68 68 68 76 83 84 81 80 81 81 80 80 79 81
183 185 200 215 217 209 207 210 218 230 250 262 265 253 241 250 225 249 221 173 98 75 59 38 27 38 43 62 71 66 71 70 75 78 80 82 81 79 79 79 78 81 82
192 192 197 212 219 218 214 216 224 231 233 242 247 246 249 264 252 246 212 172 117 107 90 85 47 47 55 67 79 76 86 78 76 75 74 74 74 73 73 76 77 77 79
203 197 201 207 211 212 210 211 235 231 237 236 236 233 231 217 213 219 216 198 181 158 152 98 85 62 50 66 62 51 94 88 80 79 80 78 75 70 66 68 73 72 73
204 205 208 203 204 205 211 205 222 213 221 232 232 225 236 205 210 219 224 239 252 220 157 136 144 100 81 68 62 114 93 86 83 85 84 82 75 73 72 70 72 66 66
208 207 212 211 205 200 200 205 217 214 213 204 230 232 230 224 202 205 224 243 268 272 176 122 136 130 125 118 92 79 88 105 98 93 90 85 77 73 76 82 80 70 66
217 214 214 219 215 207 204 199 206 196 208 202 200 208 213 213 205 202 211 226 240 234 180 141 140 157 166 157 138 149 143 149 119 105 95 91 84 81 84 86 82 76 73
223 221 220 221 216 215 212 208 206 201 202 206 202 205 207 192 211 212 215 219 211 219 204 168 163 175 179 167 163 168 166 152 137 112 110 106 106 97 95 90 83 80 75
226 220 219 223 219 214 208 210 212 209 210 214 211 209 206 200 205 199 210 211 199 194 201 191 167 159 177 168 174 168 168 177 176 144 149 152 143 137 127 122 102 93 85
232 228 219 219 221 217 211 210 213 212 212 211 215 220 215 211 214 203 203 202 194 192 196 197 181 177 179 178 195 184 179 185 207 183 163 164 164 179 177 167 153 139 129
235 237 231 222 220 223 221 221 217 216 214 207 210 219 224 249 336 261 236 212 201 203 199 202 198 194 191 191 204 202 203 207 205 206 201 198 194 200 189 188 196 188 183
231 225 232 231 222 219 180 217 241 217 220 214 210 211 198 196 191 209 240 260 261 234 215 207 209 212 212 205 206 215 211 218 217 191 217 213 216 220 212 206 158 175 196
224 225 226 228 227 208 174 193 220 231 222 221 220 212 203 197 208 212 199 209 229 256 266 254 231 226 222 204 206 213 215 228 246 195 223 224 216 224 212 168 155 177 192
212 220 226 224 226 198 177 191 200 225 221 220 225 222 210 203 204 222 218 218 216 209 222 237 245 243 237 219 219 224 222 224 233 201 220 241 221 232 225 205 171 186 194
219 223 221 217 218 201 181 189 200 220 222 221 221 225 221 211 174 204 222 222 223 215 199 246 308 329 20 260 234 213 208 217 230 212 205 239 232 240 240 232 187 185 197
224 229 229 225 228 224 178 191 208 220 221 219 215 216 211 222 185 201 221 221 224 219 206 198 211 209 213 200 209 225 223 230 237 228 191 227 233 235 242 219 219 205 204